GFSFLT1_850_rhum_144.txt.gz
RH
46 47 45 43 40 34 32 35 35 38 42 44 46 47 48 49 49 48 47 46 45 45 45 44 45 44 44 43 43 42 42 43
51 49 49 46 43 40 37 40 39 45 46 47 49 51 52 48 45 42 41 41 42 45 48 49 49 49 48 45 42 41 42 43
57 57 54 51 46 43 41 43 44 49 51 51 52 50 44 38 33 33 30 29 29 30 32 33 33 33 34 39 46 50 56 62
61 61 57 54 50 43 42 44 44 50 46 43 39 36 34 32 27 24 22 23 25 28 32 32 32 33 34 37 42 46 50 54
61 64 63 58 54 46 46 38 34 35 33 30 28 26 24 24 25 28 33 36 39 40 40 38 38 39 41 41 45 54 72 91
62 63 63 61 59 50 48 32 25 21 19 19 21 24 26 28 34 39 41 42 43 44 43 42 44 50 56 61 65 76 98 99
65 66 67 66 63 55 47 32 24 22 23 25 26 27 29 35 38 41 43 45 46 47 49 53 58 67 74 79 92 98 98 98
69 70 72 71 62 57 46 38 29 28 29 30 32 34 36 37 41 46 52 55 56 57 61 64 69 75 78 81 83 87 88 88
70 69 72 71 64 58 56 44 35 32 35 37 38 37 38 41 46 53 56 59 60 65 66 67 69 73 75 78 78 78 80 82
76 73 73 71 67 66 60 44 41 37 40 40 41 44 44 46 52 56 57 58 58 58 58 57 58 59 62 72 76 79 81 84
86 74 75 74 70 69 61 50 43 40 46 45 48 51 50 49 51 53 53 51 47 42 43 43 43 42 45 51 48 56 70 72
87 83 79 77 74 69 63 51 46 46 52 52 53 55 55 53 54 54 52 44 33 23 18 16 18 26 36 27 22 24 28 36
90 85 80 79 74 73 66 54 49 54 60 61 63 63 58 55 58 56 47 34 23 16 13 12 14 21 20 23 18 13 15 15
89 84 80 78 76 75 70 59 55 64 64 64 67 67 62 62 61 54 40 27 18 13 11 11 18 22 27 20 11 8 10 11
87 82 79 78 78 75 70 64 66 70 66 69 71 67 66 70 64 49 33 19 16 11 10 12 20 24 23 17 14 11 11 13
85 80 78 74 76 73 71 69 67 68 65 74 75 73 74 72 60 42 25 15 11 10 11 21 27 22 15 14 16 14 14 16
86 78 67 67 73 73 74 73 75 70 85 78 82 83 79 73 55 34 17 13 11 9 15 23 30 17 7 10 16 16 16 18
79 77 70 68 70 75 82 86 82 84 84 95 86 82 80 68 44 24 13 11 10 10 16 26 23 13 6 11 20 20 22 25
70 77 77 72 77 86 96 92 81 96 98 88 92 84 77 58 35 19 14 12 11 10 12 19 18 7 8 20 28 28 35 38

GFSFLT1_850_rhum_147.txt.gz
RH
44 43 40 39 36 33 28 28 28 32 38 40 43 45 47 49 49 46 43 41 41 41 40 41 41 42 42 42 42 42 41 39
51 49 46 42 40 36 30 31 29 30 38 42 46 48 47 43 36 30 26 23 23 22 23 24 24 25 24 24 25 28 35 37
53 54 52 48 43 39 37 36 36 38 46 46 46 43 36 28 22 19 17 16 15 16 16 16 17 18 20 21 22 24 27 32
58 58 55 53 48 42 40 38 38 43 46 47 44 34 24 20 18 18 19 20 21 22 25 28 31 35 38 39 39 38 37 37
57 58 59 57 51 48 44 42 42 44 43 45 40 30 22 18 19 22 24 27 32 34 36 39 42 47 50 51 51 51 50 50
52 53 55 57 54 53 46 46 44 43 40 32 27 24 22 22 25 30 33 36 40 44 47 51 54 56 56 55 55 55 56 64
64 64 61 60 59 59 49 46 39 32 25 21 22 25 26 28 32 35 40 47 51 53 56 58 61 61 59 59 62 63 68 76
67 70 65 64 63 62 54 44 30 24 23 23 26 29 33 36 39 44 48 52 53 53 55 56 56 57 56 58 65 67 69 71
68 75 68 68 68 65 57 45 31 26 26 27 28 34 37 40 45 52 53 51 49 49 49 50 50 51 46 44 47 50 62 68
79 86 76 71 71 66 59 47 36 29 31 32 35 39 42 46 50 53 52 49 46 43 41 36 33 30 27 25 23 25 38 51
82 87 81 75 74 68 62 52 38 33 38 40 40 42 46 53 52 51 50 47 40 29 19 14 12 13 14 14 13 13 18 22
92 96 88 80 77 72 67 59 46 43 45 43 43 44 50 52 53 53 50 41 29 19 12 10 11 11 10 11 10 9 10 10
83 89 84 83 79 76 71 61 52 48 46 47 48 52 52 53 56 54 46 34 22 12 9 9 10 9 11 9 7 6 7 8
99 98 91 87 82 77 70 62 53 50 52 51 54 54 55 57 59 53 41 27 14 10 8 8 7 8 7 7 7 7 9 12
96 99 98 90 82 76 73 67 57 53 55 56 55 60 60 66 62 52 36 20 13 10 8 6 6 6 6 6 9 11 13 16
100 100 100 97 84 80 76 69 60 55 56 58 62 66 72 68 63 49 29 15 12 9 9 6 6 6 5 9 10 14 17 18
100 100 98 92 84 81 79 73 66 76 64 74 81 76 72 73 64 42 23 16 11 9 7 6 8 8 5 6 14 18 19 23
96 97 92 88 95 88 90 91 82 72 73 83 90 86 78 75 60 35 17 12 9 7 6 9 10 8 6 8 17 21 21 23
87 91 95 91 94 99 91 92 93 85 87 97 97 92 84 76 54 27 16 13 10 8 8 10 10 10 10 14 22 25 21 21

GFSFLT1_850_rhum_150.txt.gz
RH
56 62 59 52 44 34 31 30 27 26 32 34 37 38 44 45 45 44 40 38 37 36 35 34 32 29 26 24 23 22 23 19
54 65 66 50 42 36 34 32 29 29 37 40 40 41 45 44 38 31 24 21 19 18 16 15 15 15 14 13 14 17 29 13
54 68 73 55 44 40 38 34 31 37 52 69 56 46 43 35 24 19 16 15 16 17 18 18 19 21 22 22 22 31 60 31
50 65 72 62 56 46 41 40 34 43 59 46 46 43 35 26 21 19 19 19 20 21 23 24 26 27 28 29 32 39 81 84
41 60 70 72 68 55 44 39 37 43 44 50 47 54 50 32 20 21 22 23 25 26 26 27 29 30 34 41 46 55 73 88
35 55 65 72 75 58 46 40 41 44 47 56 52 57 28 20 21 26 28 28 30 31 32 34 36 39 43 48 51 55 59 69
32 50 64 72 77 70 50 44 44 47 54 51 52 32 22 20 24 30 33 35 37 39 40 41 42 47 52 56 60 60 66 70
38 51 65 72 81 81 60 54 49 47 52 47 38 26 24 23 27 31 37 41 41 43 44 44 47 48 48 46 43 40 41 54
48 54 65 72 85 87 67 67 64 50 44 36 30 26 27 28 30 34 39 42 43 43 46 44 40 37 34 30 25 23 24 31
54 59 67 73 87 90 77 73 57 39 31 29 28 30 32 32 33 38 41 43 42 41 37 29 21 16 15 13 11 10 12 14
60 65 73 78 89 93 81 66 51 35 32 34 35 37 38 38 39 42 43 43 40 34 25 18 14 12 10 8 8 6 8 9
59 70 76 88 94 96 87 72 57 40 36 42 46 45 43 45 45 45 45 42 33 26 18 12 10 10 7 7 7 9 6 13
55 66 79 89 95 97 92 77 71 51 48 50 50 48 48 50 48 47 46 38 27 18 12 10 9 7 6 8 11 18 25 13
60 70 79 91 96 97 98 84 72 70 66 55 55 51 53 55 55 47 46 34 22 15 11 8 7 8 11 12 17 19 11 7
68 74 83 91 97 99 100 89 74 82 79 66 59 58 60 61 54 54 43 29 45 23 10 8 9 11 12 10 22 39 10 7
78 80 83 94 99 100 100 93 92 69 59 72 79 80 74 63 65 55 39 40 38 19 10 9 14 24 21 32 43 30 18 10
82 86 89 96 100 100 100 100 94 78 75 81 90 90 84 79 68 54 33 24 34 40 13 33 52 10 5 6 23 32 18 44
92 87 90 95 100 100 100 100 97 89 97 98 96 92 84 79 71 49 31 29 64 28 34 64 29 6 5 6 8 19 28 13
84 90 96 98 100 100 100 100 98 97 98 98 98 94 95 92 95 79 26 29 27 14 20 48 40 8 10 11 10 11 16 16

GFSFLT1_850_rhum_156.txt.gz
RH
31 39 46 48 50 54 65 67 53 41 35 30 26 28 28 31 34 28 28 32 37 41 38 37 40 42 33 30 27 21 22 17
25 35 44 48 48 53 66 68 64 50 38 32 27 26 29 32 29 28 29 32 34 36 30 26 24 20 14 10 11 17 26 15
21 32 43 48 48 53 68 73 75 64 53 44 40 38 37 36 32 32 28 24 20 18 16 16 26 19 15 15 16 36 40 20
14 34 42 48 50 51 63 73 79 72 72 66 66 67 53 42 32 30 20 13 11 13 16 18 22 27 21 20 22 40 62 39
14 29 43 47 51 52 57 68 75 78 70 67 70 62 48 40 32 22 14 12 14 16 19 24 26 28 28 29 31 40 67 61
14 15 40 44 53 56 59 66 71 77 72 69 72 70 57 50 43 26 18 16 18 20 23 25 28 30 32 32 34 38 52 57
28 22 25 53 58 62 64 66 67 74 76 76 76 66 63 61 51 36 24 23 22 24 28 29 29 31 36 38 39 38 42 49
35 34 44 53 59 62 65 67 69 70 75 80 80 71 69 62 54 46 45 44 37 32 33 35 34 32 34 38 38 36 35 39
40 37 39 48 54 59 64 69 73 71 73 79 82 80 75 66 61 69 74 62 59 47 42 40 38 34 34 33 32 32 30 27
30 38 40 32 48 55 62 66 74 75 71 75 83 86 81 69 69 70 75 80 65 54 43 38 36 30 25 20 19 17 19 23
30 31 42 48 48 53 59 65 72 73 72 76 82 89 83 71 74 74 77 75 63 52 47 37 29 21 18 17 14 16 24 30
33 36 42 46 54 59 63 67 73 75 72 77 88 88 80 74 76 76 72 68 59 51 42 35 25 21 20 24 15 17 27 25
34 37 42 47 53 63 70 76 83 81 75 80 86 86 81 83 84 83 78 69 64 53 40 32 27 23 21 18 21 28 35 47
30 36 44 49 54 61 68 73 81 82 82 82 86 85 88 91 94 84 78 82 72 59 41 32 26 27 24 18 19 29 43 52
24 33 49 55 59 66 69 72 74 80 85 84 94 94 99 100 98 87 81 81 79 56 45 31 29 29 25 23 29 26 33 39
26 42 54 64 69 72 78 77 80 80 88 87 95 100 100 99 96 91 90 80 73 52 43 34 32 28 28 58 46 42 38 31
38 41 47 56 71 81 84 84 82 87 90 93 100 100 100 99 93 96 100 99 81 51 44 46 29 28 41 40 66 60 55 52
41 44 51 64 60 68 80 92 90 92 95 100 100 100 100 99 98 98 100 92 89 97 78 34 26 37 52 58 68 59 60 62
49 45 57 78 88 74 90 91 95 99 100 100 100 98 98 97 97 97 97 97 97 96 95 74 30 30 43 50 56 45 53 55

GFSFLT1_850_rhum_159.txt.gz
RH
42 47 50 54 54 54 55 56 60 62 54 41 39 34 28 21 17 17 21 29 37 44 42 44 46 42 43 42 42 42 36 35
21 37 50 52 53 53 52 54 57 60 61 59 54 44 38 29 21 20 22 28 31 31 33 34 33 32 31 24 23 20 20 20
19 36 50 50 51 51 51 50 50 55 55 54 54 46 49 40 36 30 29 32 34 29 28 23 20 16 13 13 15 23 28 20
13 37 48 49 49 49 48 48 48 51 56 51 54 62 64 52 46 37 37 35 30 23 17 15 12 12 14 16 16 19 27 23
21 34 47 47 48 49 50 53 55 59 65 58 54 52 59 56 51 46 40 30 22 18 17 18 16 16 16 17 20 24 24 23
35 46 48 49 49 51 54 58 59 59 68 66 67 67 68 68 61 54 37 29 26 24 22 21 21 19 21 22 23 23 26 27
42 39 53 52 54 56 58 58 59 63 69 70 70 70 72 68 53 52 42 31 30 33 29 25 26 23 23 22 24 27 25 28
33 52 56 53 54 55 55 54 58 68 73 74 72 71 73 68 59 57 52 36 31 34 33 29 30 28 27 28 28 30 27 26
33 38 50 52 52 50 50 56 60 65 72 76 77 77 76 73 75 64 58 42 37 43 49 40 37 34 33 30 29 29 31 27
30 36 34 40 55 56 56 56 59 66 68 70 73 78 80 80 78 67 63 55 60 59 49 45 44 40 35 33 29 24 21 18
30 33 42 49 48 53 58 62 65 68 71 72 72 77 82 85 76 71 70 69 71 65 62 58 47 41 33 27 21 19 16 16
30 32 30 36 50 56 58 65 66 69 72 73 74 78 84 86 77 74 73 77 79 82 72 63 52 41 29 23 18 17 16 18
31 32 32 34 35 48 51 59 65 68 70 74 75 77 84 88 81 79 76 78 80 78 74 69 47 39 32 30 21 17 16 21
28 38 45 47 44 44 57 71 70 69 73 74 70 78 87 88 81 80 82 82 81 81 88 76 48 38 32 27 31 26 24 20
26 45 51 53 52 42 44 58 77 78 77 77 72 71 74 82 85 86 87 86 83 87 84 70 55 45 36 37 33 31 50 30
42 45 46 49 54 55 47 54 64 71 82 84 85 84 84 85 88 95 96 97 85 91 83 63 55 46 38 38 60 86 32 20
41 45 47 51 57 54 52 57 64 59 81 91 92 90 93 93 99 100 100 99 98 96 78 56 48 48 96 95 65 32 28 22
40 34 39 56 76 67 65 62 66 74 79 91 94 95 100 100 100 99 98 98 97 96 87 65 60 97 91 95 92 45 37 33
32 28 37 40 44 55 72 86 85 91 92 94 94 99 100 100 99 99 99 98 97 97 95 96 98 96 87 94 88 57 39 38